Bellingham, WA
on Sunday, February 17, 2013

Sunday
Previous Day Next Day
Daily Summary
 ActualAverageRecord
Temperature
Mean Temperature °F 41°F  
Max Temperature 48°F 48°F 58°F (1996)
Min Temperature 43°F 33°F 17°F (1990)
Degree Days
Heating Degree Days 20 24  
Month to date heating degree days 419  
Cooling Degree Days 0 0  
Month to date cooling degree days 0  
Year to date cooling degree days 0  
Moisture
Dew Point 37°F   
Average Humidity 69    
Maximum Humidity 76    
Minimum Humidity 59    
Precipitation
Precipitation 0.00 in 0.10 in 0.85 in (1989)
Month to date precipitation 1.88  
Year to date precipitation 6.55  
Wind
Wind Speed 3 mph   
Max Wind Speed 9 mph   
Max Gust Speed mph   
Visibility 10 miles   
Events Rain   

Key: T is trace of precipitation, MM is missing value
Source: NWS Daily Summary
Time(PST)TemperatureDew PointHumidity Pressure Visibility Wind DirectionWind SpeedGust SpeedPrecipitationEvents Conditions
12:23 AM 48.2°F 39.2°F 71% 30.16 in 10.0 miles South 3.5 mph - N/A   Overcast
12:51 AM 48.2°F 39.2°F 71% 30.17 in 10.0 miles South 3.5 mph - N/A   Overcast
12:53 AM 48.0°F 39.0°F 71% 30.20 in 10.0 miles South 3.5 mph - N/A   Overcast
1:23 AM 48.2°F 39.2°F 71% 30.18 in 10.0 miles Calm Calm - 0.00 in   Overcast
1:53 AM 48.0°F 39.0°F 71% 30.21 in 10.0 miles Calm Calm - 0.00 in   Overcast
2:53 AM 48.0°F 35.1°F 61% 30.21 in 10.0 miles West 5.8 mph - N/A   Overcast
3:53 AM 46.9°F 35.1°F 63% 30.21 in 10.0 miles Calm Calm - N/A   Overcast
4:53 AM 45.0°F 36.0°F 71% 30.22 in 10.0 miles Calm Calm - N/A   Overcast
5:53 AM 46.9°F 33.1°F 59% 30.22 in 10.0 miles Calm Calm - N/A   Overcast
6:53 AM 44.1°F 37.0°F 76% 30.22 in 10.0 miles Calm Calm - N/A   Overcast
7:53 AM 46.0°F 37.0°F 71% 30.23 in 10.0 miles SSE 6.9 mph - 0.00 in   Overcast
8:53 AM 46.0°F 37.0°F 71% 30.25 in 10.0 miles South 4.6 mph - 0.00 in Rain Light Rain
9:53 AM 46.9°F 37.9°F 71% 30.25 in 10.0 miles SE 5.8 mph - 0.00 in   Overcast
10:00 AM 46.4°F 37.4°F 71% 30.23 in 10.0 miles SSE 4.6 mph - N/A   Overcast
10:53 AM 46.9°F 37.0°F 68% 30.25 in 10.0 miles South 4.6 mph - N/A   Overcast
11:53 AM 48.0°F 37.9°F 68% 30.25 in 10.0 miles South 5.8 mph - N/A   Clear
12:53 PM 48.9°F 37.0°F 64% 30.24 in 10.0 miles South 9.2 mph - N/A   Clear
1:53 PM 48.9°F 37.9°F 66% 30.24 in 10.0 miles South 8.1 mph - N/A   Overcast
2:53 PM 48.9°F 37.0°F 64% 30.22 in 10.0 miles South 8.1 mph - N/A   Mostly Cloudy
3:53 PM 48.0°F 37.0°F 66% 30.22 in 10.0 miles South 4.6 mph - N/A   Mostly Cloudy
4:53 PM 48.0°F 35.1°F 61% 30.21 in 10.0 miles South 3.5 mph - N/A   Mostly Cloudy
5:53 PM 46.0°F 36.0°F 68% 30.19 in 10.0 miles Calm Calm - N/A   Clear
6:53 PM 44.1°F 36.0°F 73% 30.19 in 10.0 miles Calm Calm - N/A   Mostly Cloudy
7:53 PM 43.0°F 36.0°F 76% 30.18 in 10.0 miles Calm Calm - N/A   Mostly Cloudy
9:53 PM 44.1°F 37.0°F 76% 30.17 in 10.0 miles Calm Calm - N/A   Overcast
10:53 PM 44.1°F 37.0°F 76% 30.16 in 10.0 miles Calm Calm - N/A   Overcast
11:53 PM 44.1°F 37.0°F 76% 30.13 in 10.0 miles Calm Calm - N/A   Overcast
Moon Phase
Feb. 17 Feb. 17 Feb. 25 Mar. 04 Mar. 11
Sunrise:07:13 AM (PST) Moon Rise:10:30 AM (PST)2/17
Sunset:05:35 PM (PST) Moon Set:01:14 AM (PST)2/17

Copyright © 2014 The Weather Underground, Inc.